2CUTH LFRT-EGBS

Flight info

Callsign 2CUTH
Flight time N/A
Altitude 3500
Route VFR
Aircraft BE36/L-SBDFGRY/S

Departure

Time 2026-04-25 11:17
Airport Saint-Brieuc-Armor Airport (LFRT)

Arrival

Time N/A
Airport Shobdon Airfield (EGBS)
Time Latitude Longitude Altitude Speed Heading
2026-04-25 11:11 48.53538 -2.85464 445 ft 0 kts 259°
2026-04-25 11:14 48.53539 -2.85471 445 ft 3 kts 297°
2026-04-25 11:14 48.53587 -2.85513 445 ft 11 kts 334°
2026-04-25 11:14 48.53675 -2.85586 443 ft 18 kts 328°
2026-04-25 11:14 48.53779 -2.85554 447 ft 21 kts 54°
2026-04-25 11:15 48.53877 -2.85328 445 ft 31 kts 57°
2026-04-25 11:15 48.54009 -2.85006 440 ft 40 kts 59°
2026-04-25 11:15 48.54135 -2.84684 439 ft 31 kts 66°
2026-04-25 11:15 48.54178 -2.84528 432 ft 5 kts 18°
2026-04-25 11:16 48.53991 -2.85047 441 ft 81 kts 239°
2026-04-25 11:16 48.53641 -2.85827 630 ft 96 kts 232°
2026-04-25 11:16 48.53221 -2.86722 792 ft 115 kts 240°
2026-04-25 11:17 48.52816 -2.87793 957 ft 121 kts 239°
2026-04-25 11:17 48.52178 -2.88405 1281 ft 107 kts 166°
2026-04-25 11:17 48.51628 -2.87774 1650 ft 103 kts 109°
2026-04-25 11:17 48.51822 -2.86777 1930 ft 106 kts 58°
2026-04-25 11:18 48.52249 -2.85873 2471 ft 105 kts 62°
2026-04-25 11:18 48.52756 -2.85036 2816 ft 114 kts 31°
2026-04-25 11:18 48.53529 -2.84687 3150 ft 118 kts 25°
2026-04-25 11:18 48.54354 -2.84265 3337 ft 143 kts 24°
2026-04-25 11:19 48.55356 -2.83690 3306 ft 156 kts 25°
2026-04-25 11:19 48.56402 -2.83102 3279 ft 166 kts 24°
2026-04-25 11:19 48.57481 -2.82502 3292 ft 165 kts 23°
2026-04-25 11:19 48.58562 -2.81901 3277 ft 166 kts 24°
2026-04-25 11:20 48.59651 -2.81286 3257 ft 167 kts 24°
2026-04-25 11:20 48.60736 -2.80691 3257 ft 165 kts 24°
2026-04-25 11:20 48.61807 -2.80103 3256 ft 163 kts 24°
2026-04-25 11:20 48.62868 -2.79515 3258 ft 162 kts 24°
2026-04-25 11:21 48.63922 -2.78934 3256 ft 160 kts 24°
2026-04-25 11:21 48.64958 -2.78370 3255 ft 160 kts 24°
2026-04-25 11:21 48.66009 -2.77790 3259 ft 161 kts 24°
2026-04-25 11:21 48.67057 -2.77213 3259 ft 160 kts 24°
2026-04-25 11:22 48.68105 -2.76630 3257 ft 159 kts 24°
2026-04-25 11:22 48.68793 -2.76250 3259 ft 159 kts 24°
2026-04-25 11:22 48.70254 -2.75902 3260 ft 163 kts
2026-04-25 11:22 48.71388 -2.75971 3261 ft 162 kts
2026-04-25 11:23 48.72515 -2.76035 3262 ft 162 kts
2026-04-25 11:23 48.73632 -2.76101 3263 ft 163 kts
2026-04-25 11:23 48.74768 -2.76164 3263 ft 163 kts
2026-04-25 11:23 48.75905 -2.76228 3264 ft 164 kts
2026-04-25 11:24 48.77044 -2.76287 3264 ft 163 kts
2026-04-25 11:24 48.78184 -2.76342 3265 ft 164 kts
2026-04-25 11:24 48.79322 -2.76403 3269 ft 164 kts
2026-04-25 11:24 48.80463 -2.76466 3271 ft 164 kts
2026-04-25 11:25 48.81607 -2.76521 3269 ft 164 kts
2026-04-25 11:25 48.82749 -2.76583 3273 ft 164 kts
2026-04-25 11:25 48.83891 -2.76645 3275 ft 164 kts
2026-04-25 11:25 48.85020 -2.76706 3274 ft 164 kts
2026-04-25 11:26 48.86164 -2.76771 3275 ft 164 kts
2026-04-25 11:26 48.87308 -2.76826 3276 ft 164 kts
2026-04-25 11:26 48.88450 -2.76884 3276 ft 164 kts
2026-04-25 11:26 48.89591 -2.76948 3279 ft 164 kts
2026-04-25 11:27 48.90733 -2.77010 3276 ft 164 kts
2026-04-25 11:27 48.91861 -2.77072 3277 ft 164 kts
2026-04-25 11:27 48.93003 -2.77137 3278 ft 164 kts
2026-04-25 11:27 48.93771 -2.77182 3276 ft 163 kts
2026-04-25 11:28 48.95275 -2.77261 3276 ft 163 kts
2026-04-25 11:28 48.96407 -2.77326 3277 ft 162 kts
2026-04-25 11:28 48.97533 -2.77388 3275 ft 162 kts
2026-04-25 11:28 48.98658 -2.77455 3274 ft 162 kts
2026-04-25 11:29 48.99782 -2.77520 3273 ft 162 kts
2026-04-25 11:29 49.00909 -2.77590 3275 ft 163 kts
2026-04-25 11:29 49.02041 -2.77659 3272 ft 162 kts
2026-04-25 11:29 49.03171 -2.77727 3274 ft 162 kts
2026-04-25 11:30 49.04301 -2.77793 3275 ft 163 kts
2026-04-25 11:30 49.05434 -2.77857 3278 ft 163 kts
2026-04-25 11:30 49.06573 -2.77919 3277 ft 164 kts
2026-04-25 11:30 49.07700 -2.77984 3280 ft 164 kts
2026-04-25 11:31 49.08843 -2.78048 3281 ft 165 kts
2026-04-25 11:31 49.09987 -2.78111 3285 ft 164 kts
2026-04-25 11:31 49.11131 -2.78172 3282 ft 164 kts
2026-04-25 11:31 49.12273 -2.78226 3282 ft 164 kts
2026-04-25 11:32 49.13414 -2.78281 3285 ft 164 kts
2026-04-25 11:32 49.14554 -2.78335 3285 ft 164 kts
2026-04-25 11:32 49.15694 -2.78396 3284 ft 163 kts
2026-04-25 11:32 49.16828 -2.78460 3286 ft 163 kts
2026-04-25 11:33 49.17956 -2.78522 3283 ft 161 kts
2026-04-25 11:33 49.19080 -2.78578 3286 ft 162 kts
2026-04-25 11:33 49.20190 -2.78643 3284 ft 162 kts
2026-04-25 11:33 49.21316 -2.78706 3287 ft 162 kts
2026-04-25 11:34 49.22449 -2.78767 3286 ft 163 kts
2026-04-25 11:34 49.23579 -2.78829 3286 ft 163 kts
2026-04-25 11:34 49.24711 -2.78888 3288 ft 162 kts
2026-04-25 11:34 49.25840 -2.78945 3290 ft 163 kts
2026-04-25 11:35 49.26977 -2.79001 3291 ft 163 kts
2026-04-25 11:35 49.28114 -2.79054 3292 ft 164 kts
2026-04-25 11:35 49.29252 -2.79101 3297 ft 163 kts
2026-04-25 11:35 49.30393 -2.79145 3295 ft 164 kts
2026-04-25 11:36 49.31531 -2.79188 3296 ft 163 kts
2026-04-25 11:36 49.32668 -2.79235 3296 ft 163 kts
2026-04-25 11:36 49.33801 -2.79277 3298 ft 163 kts
2026-04-25 11:36 49.34924 -2.79330 3298 ft 164 kts
2026-04-25 11:37 49.36064 -2.79382 3299 ft 164 kts
2026-04-25 11:37 49.37203 -2.79431 3295 ft 163 kts
2026-04-25 11:37 49.38338 -2.79482 3297 ft 163 kts
2026-04-25 11:37 49.39471 -2.79535 3297 ft 162 kts
2026-04-25 11:38 49.40598 -2.79585 3297 ft 162 kts
2026-04-25 11:38 49.41725 -2.79632 3297 ft 162 kts
2026-04-25 11:38 49.42853 -2.79675 3299 ft 163 kts
2026-04-25 11:38 49.43988 -2.79718 3298 ft 163 kts
2026-04-25 11:39 49.45127 -2.79759 3299 ft 164 kts
2026-04-25 11:39 49.45882 -2.79779 3297 ft 164 kts
2026-04-25 11:39 49.47023 -2.79816 3300 ft 164 kts
2026-04-25 11:39 49.48548 -2.79871 3298 ft 163 kts
2026-04-25 11:40 49.49664 -2.79906 3300 ft 163 kts
2026-04-25 11:40 49.50799 -2.79936 3297 ft 163 kts
2026-04-25 11:40 49.51936 -2.79973 3299 ft 164 kts
2026-04-25 11:40 49.53076 -2.80001 3301 ft 164 kts
2026-04-25 11:41 49.53847 -2.80016 3301 ft 164 kts
2026-04-25 11:41 49.54993 -2.80047 3299 ft 165 kts
2026-04-25 11:41 49.56137 -2.80071 3298 ft 164 kts
2026-04-25 11:41 49.57275 -2.80100 3297 ft 163 kts
2026-04-25 11:42 49.58393 -2.80128 3295 ft 162 kts
2026-04-25 11:42 49.59500 -2.79922 3297 ft 160 kts 18°
2026-04-25 11:42 49.60582 -2.79496 3300 ft 161 kts 16°
2026-04-25 11:42 49.61672 -2.79084 3298 ft 162 kts 14°
2026-04-25 11:43 49.62800 -2.78951 3297 ft 163 kts 358°
2026-04-25 11:43 49.63920 -2.79273 3296 ft 165 kts 339°
2026-04-25 11:43 49.64937 -2.80099 3298 ft 165 kts 332°
2026-04-25 11:43 49.65937 -2.80980 3299 ft 166 kts 330°
2026-04-25 11:44 49.66930 -2.81894 3301 ft 166 kts 329°
2026-04-25 11:44 49.67918 -2.82817 3301 ft 166 kts 330°
2026-04-25 11:44 49.68889 -2.83725 3301 ft 165 kts 329°
2026-04-25 11:44 49.69878 -2.84647 3304 ft 166 kts 330°
2026-04-25 11:45 49.70866 -2.85565 3301 ft 165 kts 329°
2026-04-25 11:45 49.71848 -2.86484 3301 ft 165 kts 330°
2026-04-25 11:45 49.72834 -2.87403 3302 ft 165 kts 329°
2026-04-25 11:45 49.73820 -2.88323 3304 ft 165 kts 329°
2026-04-25 11:46 49.74807 -2.89246 3305 ft 166 kts 330°
2026-04-25 11:46 49.75794 -2.90167 3304 ft 166 kts 329°
2026-04-25 11:46 49.76778 -2.91086 3301 ft 165 kts 329°
2026-04-25 11:46 49.77756 -2.92004 3304 ft 164 kts 329°
2026-04-25 11:47 49.78736 -2.92918 3305 ft 165 kts 329°
2026-04-25 11:47 49.79717 -2.93834 3303 ft 164 kts 329°
2026-04-25 11:47 49.80698 -2.94755 3302 ft 165 kts 329°
2026-04-25 11:47 49.81663 -2.95659 3305 ft 164 kts 329°
2026-04-25 11:48 49.82645 -2.96578 3303 ft 165 kts 329°
2026-04-25 11:48 49.83627 -2.97499 3301 ft 165 kts 329°
2026-04-25 11:48 49.84612 -2.98423 3304 ft 165 kts 329°
2026-04-25 11:48 49.85599 -2.99348 3307 ft 166 kts 329°
2026-04-25 11:49 49.86587 -3.00275 3304 ft 166 kts 329°
2026-04-25 11:49 49.87574 -3.01202 3304 ft 166 kts 328°
2026-04-25 11:49 49.88562 -3.02130 3306 ft 166 kts 329°
2026-04-25 11:49 49.89553 -3.03060 3306 ft 167 kts 329°
2026-04-25 11:50 49.90542 -3.03990 3305 ft 166 kts 329°
2026-04-25 11:50 49.91534 -3.04925 3306 ft 167 kts 329°
2026-04-25 11:50 49.92528 -3.05856 3306 ft 167 kts 329°
2026-04-25 11:50 49.93519 -3.06792 3308 ft 166 kts 329°
2026-04-25 11:51 49.94497 -3.07713 3305 ft 166 kts 329°
2026-04-25 11:51 49.95487 -3.08645 3309 ft 166 kts 329°
2026-04-25 11:51 49.96476 -3.09576 3306 ft 166 kts 329°
2026-04-25 11:51 49.97461 -3.10504 3310 ft 165 kts 329°
2026-04-25 11:52 49.98440 -3.11429 3307 ft 165 kts 329°
2026-04-25 11:52 49.99419 -3.12351 3308 ft 164 kts 329°
2026-04-25 11:52 50.00396 -3.13277 3308 ft 164 kts 329°
2026-04-25 11:52 50.01371 -3.14202 3305 ft 164 kts 329°
2026-04-25 11:53 50.02347 -3.15135 3308 ft 164 kts 328°
2026-04-25 11:53 50.03322 -3.16068 3307 ft 165 kts 328°
2026-04-25 11:53 50.04286 -3.16994 3309 ft 164 kts 328°
2026-04-25 11:53 50.05259 -3.17932 3308 ft 164 kts 328°
2026-04-25 11:54 50.06230 -3.18871 3313 ft 164 kts 328°
2026-04-25 11:54 50.07199 -3.19812 3314 ft 164 kts 328°
2026-04-25 11:54 50.09207 -3.21460 3310 ft 164 kts 342°
2026-04-25 11:55 50.10288 -3.22022 3314 ft 164 kts 342°
2026-04-25 11:55 50.11367 -3.22585 3313 ft 164 kts 342°
2026-04-25 11:55 50.12463 -3.23055 3314 ft 163 kts 348°
2026-04-25 11:55 50.13492 -3.23788 3313 ft 163 kts 329°
2026-04-25 11:56 50.14470 -3.24678 3316 ft 163 kts 329°
2026-04-25 11:56 50.15439 -3.25599 3311 ft 163 kts 328°
2026-04-25 11:56 50.16403 -3.26531 3313 ft 163 kts 328°
2026-04-25 11:56 50.17351 -3.27452 3315 ft 163 kts 328°
2026-04-25 11:57 50.18310 -3.28382 3315 ft 162 kts 328°
2026-04-25 11:57 50.19269 -3.29312 3314 ft 162 kts 328°
2026-04-25 11:57 50.20227 -3.30241 3315 ft 162 kts 328°
2026-04-25 11:57 50.21187 -3.31173 3316 ft 162 kts 328°
2026-04-25 11:58 50.22143 -3.32102 3315 ft 162 kts 328°
2026-04-25 11:58 50.23101 -3.33031 3316 ft 162 kts 328°
2026-04-25 11:58 50.24058 -3.33961 3315 ft 162 kts 328°
2026-04-25 11:58 50.25016 -3.34892 3317 ft 162 kts 328°
2026-04-25 11:59 50.25973 -3.35823 3317 ft 162 kts 328°
2026-04-25 11:59 50.26929 -3.36753 3315 ft 162 kts 328°
2026-04-25 11:59 50.27887 -3.37687 3320 ft 162 kts 328°
2026-04-25 12:00 50.29794 -3.39543 3324 ft 162 kts 328°
2026-04-25 12:00 50.30753 -3.40478 3318 ft 162 kts 328°
2026-04-25 12:00 50.32662 -3.42339 3325 ft 161 kts 328°
2026-04-25 12:01 50.33614 -3.43266 3319 ft 161 kts 328°
2026-04-25 12:01 50.34569 -3.44192 3320 ft 161 kts 328°
2026-04-25 12:01 50.35520 -3.45119 3319 ft 161 kts 328°
2026-04-25 12:01 50.36472 -3.46046 3323 ft 161 kts 328°
2026-04-25 12:02 50.38383 -3.47859 3322 ft 160 kts 337°
2026-04-25 12:02 50.39483 -3.48055 3325 ft 160 kts 360°
2026-04-25 12:02 50.40601 -3.48055 3324 ft 160 kts 359°
2026-04-25 12:03 50.41703 -3.48050 3326 ft 161 kts 360°
2026-04-25 12:03 50.42821 -3.48139 3328 ft 160 kts 351°
2026-04-25 12:03 50.43922 -3.48430 3324 ft 160 kts 350°
2026-04-25 12:03 50.45028 -3.48511 3321 ft 160 kts
2026-04-25 12:04 50.46138 -3.48324 3320 ft 160 kts
2026-04-25 12:04 50.47251 -3.48152 3321 ft 161 kts
2026-04-25 12:04 50.48363 -3.47969 3320 ft 161 kts
2026-04-25 12:04 50.49476 -3.47785 3327 ft 161 kts
2026-04-25 12:05 50.50591 -3.47600 3325 ft 161 kts
2026-04-25 12:05 50.51707 -3.47416 3328 ft 161 kts
2026-04-25 12:05 50.52808 -3.47234 3325 ft 161 kts
2026-04-25 12:05 50.53921 -3.47050 3328 ft 161 kts
2026-04-25 12:06 50.55040 -3.46864 3325 ft 161 kts
2026-04-25 12:06 50.56157 -3.46679 3327 ft 161 kts
2026-04-25 12:06 50.57273 -3.46494 3324 ft 161 kts
2026-04-25 12:06 50.58390 -3.46308 3322 ft 163 kts
2026-04-25 12:07 50.59531 -3.46122 3325 ft 166 kts
2026-04-25 12:07 50.60681 -3.45929 3327 ft 166 kts
2026-04-25 12:07 50.61818 -3.45738 3319 ft 166 kts
2026-04-25 12:07 50.62965 -3.45540 3318 ft 165 kts
2026-04-25 12:08 50.64102 -3.45356 3317 ft 163 kts
2026-04-25 12:08 50.65230 -3.45179 3317 ft 163 kts
2026-04-25 12:08 50.66354 -3.44988 3313 ft 162 kts
2026-04-25 12:08 50.67474 -3.44800 3317 ft 162 kts
2026-04-25 12:09 50.68605 -3.44609 3318 ft 163 kts
2026-04-25 12:09 50.69737 -3.44428 3324 ft 164 kts
2026-04-25 12:09 50.70887 -3.44232 3323 ft 167 kts
2026-04-25 12:09 50.72032 -3.44039 3315 ft 167 kts
2026-04-25 12:10 50.73184 -3.43853 3319 ft 166 kts
2026-04-25 12:10 50.74339 -3.43649 3322 ft 167 kts
2026-04-25 12:10 50.75489 -3.43454 3320 ft 165 kts
2026-04-25 12:10 50.76638 -3.43265 3336 ft 166 kts
2026-04-25 12:11 50.77784 -3.43085 3317 ft 165 kts
2026-04-25 12:11 50.78920 -3.42891 3318 ft 163 kts
2026-04-25 12:11 50.80051 -3.42699 3319 ft 163 kts
2026-04-25 12:11 50.81177 -3.42507 3313 ft 162 kts
2026-04-25 12:12 50.82284 -3.42325 3314 ft 162 kts
2026-04-25 12:12 50.83041 -3.42199 3312 ft 162 kts
2026-04-25 12:12 50.84529 -3.41950 3324 ft 163 kts
2026-04-25 12:12 50.85659 -3.41758 3314 ft 163 kts
2026-04-25 12:13 50.86785 -3.41570 3311 ft 162 kts
2026-04-25 12:13 50.87908 -3.41383 3324 ft 162 kts